Weather History for Santa Ana, CA

Change the Weather History Date:

Tuesday, February 11, 2014

  Actual Average Record
Temperature  
Mean Temperature 64 °F 57 °F  
Max Temperature 73 °F 66 °F 78 °F (2002)
Min Temperature 54 °F 48 °F 40 °F (2009)
Degree Days  
Heating Degree Days 1 8  
Month to date heating degree days 69 88  
Since 1 July heating degree days 451 780  
Cooling Degree Days 0 0  
Month to date cooling degree days 0 0  
Year to date cooling degree days 27 5  
Growing Degree Days 12 (Base 50)    
Moisture  
Dew Point 53 °F    
Average Humidity 76    
Maximum Humidity 100    
Minimum Humidity 51    
Precipitation  
Precipitation 0.00 in 0.11 in 1.08 in (2005)
Month to date precipitation 0.18 0.83  
Year to date precipitation 0.20 3.74  
Since 1 July precipitation 1.25 8.11  
Snow  
Snow 0.00 in - - ()
Month to date snowfall 0.0  
Year to date snowfall 0.0  
Since 1 July snowfall 0.0  
Snow Depth 0.00 in    
Sea Level Pressure  
Sea Level Pressure 30.07 in    
Wind  
Wind Speed 2 mph (WSW)    
Max Wind Speed 10 mph    
Max Gust Speed 14 mph    
Visibility 2 miles    
Events Fog    
T = Trace of Precipitation, MM = Missing Value Source: NWS Daily Summary

Daily Weather History Graph

Daily Weather History Graph

Search for Another Location

Airport:

Trip Planner

Search our weather history database for the weather conditions in past years. The results will help you decide how hot, cold, wet, or windy it might be!

Date:

Astronomy

Feb. 11, 2014 Rise Set
Actual Time 6:39 AM PST 5:32 PM PST
Civil Twilight 6:13 AM PST 5:57 PM PST
Nautical Twilight 5:44 AM PST 6:27 PM PST
Astronomical Twilight 5:15 AM PST 6:56 PM PST
Moon 3:00 PM PST (2/11) 4:15 AM PST (2/11)
Length of Visible Light 11h 44m
Length of Day
10h 52m
Waxing Gibbous, 91% of the Moon is Illuminated
Feb 11
Waxing Gibbous
Feb 14
Full
Feb 22
Last Quarter
Mar 1
New
Mar 8
First Quarter

Hourly Weather History & Observations

Time (PST) Temp. Dew Point Humidity Pressure Visibility Wind Dir Wind Speed Gust Speed Precip Events Conditions
12:53 AM 57.9 °F 52.0 °F 81% 30.07 in 10.0 mi Calm Calm - N/A   Overcast
1:53 AM 57.9 °F 54.0 °F 87% 30.05 in 7.0 mi Calm Calm - N/A   Overcast
2:53 AM 55.9 °F 53.1 °F 90% 30.04 in 6.0 mi Calm Calm - N/A   Overcast
3:27 AM 55.4 °F 51.8 °F 88% 30.04 in 1.8 mi NNE 3.5 mph - N/A   Overcast
3:37 AM 55.4 °F 53.6 °F 94% 30.04 in 0.5 mi NNE 3.5 mph - N/A Fog Fog
3:53 AM 54.0 °F 52.0 °F 93% 30.04 in 0.8 mi NNE 5.8 mph - N/A   Mist
4:06 AM 55.4 °F 53.6 °F 94% 30.04 in 0.2 mi Calm Calm - N/A Fog Fog
4:18 AM 53.6 °F 51.8 °F 94% 30.04 in 0.5 mi NNE 4.6 mph - N/A Fog Fog
4:39 AM 53.6 °F 51.8 °F 94% 30.04 in 0.2 mi Calm Calm - N/A Fog Fog
4:53 AM 54.0 °F 52.0 °F 93% 30.04 in 0.2 mi NNW 3.5 mph - N/A Fog Fog
5:53 AM 54.0 °F 52.0 °F 93% 30.05 in 0.2 mi Calm Calm - N/A Fog Fog
6:05 AM 53.6 °F 51.8 °F 94% 30.05 in 0.2 mi Calm Calm - N/A Fog Fog
6:27 AM 53.6 °F 51.8 °F 94% 30.06 in 0.8 mi Calm Calm - N/A   Mist
6:53 AM 54.0 °F 52.0 °F 93% 30.07 in 0.2 mi Calm Calm - N/A Fog Fog
7:53 AM 54.0 °F 53.1 °F 97% 30.08 in 0.8 mi Calm Calm - N/A   Overcast
8:03 AM 53.6 °F 51.8 °F 94% 30.08 in 1.0 mi Calm Calm - N/A   Overcast
8:27 AM 55.4 °F 53.6 °F 94% 30.09 in 2.0 mi Calm Calm - N/A   Overcast
8:53 AM 55.0 °F 52.0 °F 89% 30.10 in 2.5 mi North 3.5 mph - N/A   Overcast
9:39 AM 57.2 °F 51.8 °F 82% 30.09 in 2.5 mi Calm Calm - N/A   Haze
9:53 AM 57.9 °F 52.0 °F 81% 30.10 in 3.0 mi Calm Calm - N/A   Haze
9:59 AM 57.2 °F 51.8 °F 82% 30.10 in 3.0 mi Calm Calm - N/A   Haze
10:53 AM 63.0 °F 52.0 °F 67% 30.09 in 5.0 mi SSE 4.6 mph - N/A   Haze
11:53 AM 69.1 °F 50.0 °F 51% 30.07 in 7.0 mi WNW 3.5 mph - N/A   Scattered Clouds
12:53 PM 72.0 °F 53.1 °F 51% 30.05 in 6.0 mi SW 8.1 mph - N/A   Haze
1:53 PM 66.0 °F 54.0 °F 65% 30.04 in 4.0 mi WSW 6.9 mph - N/A   Haze
2:53 PM 68.0 °F 52.0 °F 56% 30.03 in 5.0 mi SSW 3.5 mph - N/A   Haze
3:53 PM 66.9 °F 53.1 °F 61% 30.02 in 8.0 mi SSW 5.8 mph - N/A   Mostly Cloudy
4:53 PM 66.9 °F 53.1 °F 61% 30.02 in 9.0 mi SW 5.8 mph - N/A   Mostly Cloudy
5:53 PM 59.0 °F 54.0 °F 83% 30.04 in 6.0 mi SW 6.9 mph - N/A   Haze
6:53 PM 57.0 °F 54.0 °F 89% 30.05 in 5.0 mi SW 3.5 mph - N/A   Scattered Clouds
7:31 PM 55.4 °F 53.6 °F 94% 30.06 in 2.5 mi SSW 5.8 mph - N/A   Partly Cloudy
7:36 PM 55.4 °F 53.6 °F 94% 30.06 in 0.5 mi SSW 4.6 mph - N/A   Mist
7:46 PM 55.4 °F 53.6 °F 94% 30.07 in 0.5 mi SSW 4.6 mph - N/A   Mist
7:53 PM 55.9 °F 54.0 °F 93% 30.06 in 0.2 mi SSW 4.6 mph - N/A Fog Fog
8:02 PM 55.4 °F 53.6 °F 94% 30.07 in 0.2 mi SW 3.5 mph - N/A Fog Fog
8:35 PM 55.4 °F 53.6 °F 94% 30.07 in 0.5 mi SSW 8.1 mph - N/A   Overcast
8:53 PM 55.9 °F 54.0 °F 93% 30.08 in 0.5 mi Calm Calm - N/A   Overcast
9:53 PM 55.0 °F 53.1 °F 93% 30.09 in 0.5 mi Calm Calm - N/A   Overcast
10:46 PM 55.4 °F 51.8 °F 88% 30.09 in 2.5 mi Calm Calm - N/A   Mostly Cloudy
10:53 PM 55.0 °F 53.1 °F 93% 30.09 in 3.0 mi Calm Calm - N/A   Scattered Clouds
11:01 PM 55.4 °F 51.8 °F 88% 30.09 in 2.5 mi North 3.5 mph - N/A   Mostly Cloudy
11:07 PM 53.6 °F 51.8 °F 94% 30.09 in 0.8 mi Calm Calm - N/A   Mist
11:21 PM 53.6 °F 51.8 °F 94% 30.09 in 0.2 mi Calm Calm - N/A Fog Fog
11:28 PM 53.6 °F 51.8 °F 94% 30.09 in 0.5 mi Calm Calm - N/A Fog Fog
11:37 PM 55.4 °F 51.8 °F 88% 30.09 in 1.2 mi Calm Calm - N/A   Scattered Clouds
11:45 PM 53.6 °F 51.8 °F 94% 30.09 in 2.5 mi Calm Calm - N/A   Partly Cloudy
11:49 PM 53.6 °F 51.8 °F 94% 30.09 in 1.0 mi Calm Calm - N/A   Mist
11:53 PM 54.0 °F 52.0 °F 93% 30.09 in 0.8 mi Calm Calm - N/A   Mist